Vorticity
8 19 -1 -1 -4 -8 -10 7 15 4 10 10 9 11 9 6 7 4 1 -0 3 5 6 8 8 7 9 8 8 -13 -2 8 9 7 6 10 0 8 5 17 13 8 5 10 -1
3 2 8 15 12 -1 2 -7 7 12 8 10 10 11 9 5 4 4 5 6 4 5 5 6 -3 10 -2 11 11 7 9 -4 10 6 5 2 5 5 6 8 11 1 6 8 15
8 -1 7 2 12 20 -2 14 -1 10 13 8 11 11 8 6 4 6 4 4 3 5 9 9 10 8 8 7 9 12 4 5 8 13 4 1 8 5 9 15 5 11 -2 1 7
5 -0 4 4 9 4 10 20 5 8 7 11 11 10 8 6 2 9 8 4 3 5 6 4 5 0 4 4 7 8 10 10 2 3 8 8 8 8 7 9 4 5 6 8 7
6 2 -3 -4 4 8 13 14 9 -1 9 11 13 10 8 6 -13 16 6 3 2 4 6 -0 8 5 9 7 5 15 -2 -1 4 10 4 6 11 7 15 9 6 6 7 6 8
6 0 0 -6 5 5 4 22 10 4 12 8 15 9 7 5 11 -20 20 1 3 1 1 3 -1 5 9 9 8 -8 -0 7 4 8 4 7 13 13 7 7 7 9 10 11 13
12 4 4 -2 13 10 2 -8 4 9 8 12 13 10 6 2 8 16 7 9 3 2 3 1 1 3 -5 8 11 11 12 8 16 2 13 17 14 17 0 10 6 10 5 11 11
11 6 -2 8 2 -2 9 1 14 9 9 11 12 10 11 11 3 8 -6 2 15 7 3 3 3 1 5 3 11 18 16 13 27 -10 8 6 -19 6 2 12 9 2 10 9 9
8 13 7 3 3 8 6 12 13 -6 12 8 11 9 10 7 9 2 10 5 -1 6 9 2 1 4 3 15 7 14 -9 10 7 5 3 12 -18 12 6 12 -5 8 9 8 7
9 10 13 -0 -7 4 -3 0 11 29 -3 9 8 14 -13 19 6 9 7 9 4 5 3 2 4 7 9 10 -3 -10 5 6 7 7 2 9 4 -8 3 18 18 -0 7 8 5
10 9 12 6 -7 -15 10 -6 6 7 8 2 -5 22 11 25 6 6 8 5 10 9 6 9 11 12 6 20 9 5 6 1 7 3 2 8 21 9 9 -2 12 1 6 8 3
9 10 12 11 13 15 -16 3 11 -4 12 14 -6 13 -11 -0 25 9 4 6 2 1 1 2 -4 7 -1 11 -0 -4 8 9 8 6 5 21 3 10 3 5 24 8 3 10 4
9 9 10 12 8 -1 14 -3 13 5 13 -18 31 -2 10 10 -4 30 8 4 6 8 5 2 -11 4 13 10 8 8 18 6 0 3 5 17 24 34 -0 26 35 4 6 12 4
9 9 10 10 6 5 17 -4 4 0 3 13 30 -2 13 14 8 0 9 31 5 -5 10 10 6 11 3 7 4 9 9 6 7 14 4 -4 -6 7 11 11 13 3 -1 9 2
12 8 10 11 11 14 4 8 17 11 6 23 26 5 25 -8 8 0 6 5 16 10 5 4 15 8 11 14 20 8 8 12 15 5 7 12 2 12 31 2 16 5 8 7 4
10 8 10 8 8 4 -3 10 19 -8 12 14 15 17 8 18 -24 13 15 4 2 1 11 -8 8 6 5 8 19 4 11 10 10 20 23 33 -0 25 -8 20 15 20 11 1 4
9 8 10 12 10 25 18 5 -13 -1 5 27 13 9 22 16 14 4 4 11 -6 3 10 11 5 -5 0 -7 4 6 1 26 11 10 7 12 18 -36 21 1 13 23 16 6 6
9 9 9 10 13 7 10 15 -4 42 -22 3 17 19 25 5 33 16 7 7 19 -0 8 15 33 19 14 19 -11 15 9 -25 18 7 17 2 16 16 8 8 18 3 3 12 20
11 5 7 8 18 12 8 -1 -2 16 66 -13 22 13 12 6 22 -5 25 5 12 18 -14 15 19 16 -5 19 1 29 12 10 -5 19 15 4 6 -0 17 7 31 12 0 -2 7
9 5 6 12 13 1 9 -46 16 -16 13 15 -3 4 8 7 -8 10 8 57 10 0 -3 -5 15 19 22 12 23 -11 24 19 9 11 9 35 13 -12 -6 12 14 28 7 5 8
3 10 9 12 10 9 1 -12 5 -1 -9 11 6 31 15 10 11 8 6 -19 42 14 24 -14 3 15 12 14 22 1 -5 -4 2 3 7 8 11 1 7 3 17 -9 31 7 2
15 4 -4 4 -4 25 -5 31 -18 -21 3 9 14 -0 9 4 26 -4 -5 1 44 -1 18 4 4 10 17 1 3 16 20 4 -11 34 4 -5 6 -2 22 16 -2 10 17 14 9
12 2 19 18 12 15 2 10 8 -6 5 6 1 9 4 5 5 2 14 1 7 34 23 18 17 3 11 23 9 11 4 10 6 0 0 -8 -13 -17 -10 -14 9 17 14 10 6
12 5 12 -5 -20 28 0 12 -4 -11 13 -0 9 10 11 7 -1 33 -0 10 7 19 10 24 -12 -14 -30 14 21 37 25 12 11 -5 1 1 3 -8 8 22 8 7 13 3 14
5 19 12 44 13 13 36 21 13 -1 -4 15 12 0 13 13 16 4 25 6 12 13 8 -7 19 5 -6 4 8 -7 -5 7 8 5 -5 -2 -3 -0 -14 -10 -2 2 10 2 7
-10 -6 38 -60 34 -21 -5 4 9 15 -2 3 4 -13 2 -4 15 25 4 21 2 15 9 -3 -2 9 8 -1 -0 6 6 9 1 1 3 10 -3 19 18 20 16 14 21 11 5
29 -43 35 1 -1 25 -14 6 2 8 19 20 12 2 4 -4 -8 -2 7 8 -7 4 8 9 12 8 24 11 12 36 5 30 31 30 27 8 12 9 11 5 7 7 9 17 14
Height
3135 3136 3137 3138 3139 3140 3141 3141 3141 3141 3141 3142 3142 3145 3148 3150 3152 3154 3154 3156 3157 3157 3158 3159 3159 3160 3162 3163 3164 3166 3168 3169 3171 3171 3172 3169 3169 3171 3169 3169 3170 3171 3170 3169 3170
3132 3133 3134 3135 3136 3137 3138 3140 3139 3138 3140 3140 3141 3144 3147 3149 3151 3153 3156 3155 3157 3158 3159 3159 3160 3161 3162 3163 3164 3165 3167 3168 3167 3167 3168 3167 3166 3165 3166 3166 3167 3170 3166 3164 3166
3128 3130 3131 3132 3133 3134 3135 3137 3138 3136 3138 3139 3140 3143 3146 3148 3151 3153 3154 3155 3157 3158 3159 3159 3161 3161 3163 3163 3164 3165 3165 3166 3165 3164 3164 3163 3163 3162 3163 3163 3161 3164 3165 3164 3163
3124 3127 3128 3129 3130 3131 3132 3133 3135 3135 3136 3138 3138 3141 3144 3147 3152 3151 3153 3155 3157 3158 3159 3160 3161 3163 3163 3163 3164 3163 3163 3163 3162 3160 3161 3161 3160 3160 3160 3160 3158 3161 3161 3160 3160
3120 3122 3124 3126 3127 3128 3130 3130 3131 3132 3133 3135 3137 3139 3142 3146 3148 3149 3151 3154 3155 3157 3158 3159 3162 3163 3162 3162 3162 3161 3161 3160 3159 3159 3158 3158 3158 3157 3158 3156 3157 3157 3157 3156 3156
3115 3118 3120 3123 3125 3126 3127 3128 3127 3128 3131 3132 3135 3137 3139 3143 3144 3148 3149 3152 3154 3156 3157 3159 3160 3160 3161 3160 3159 3158 3158 3158 3157 3156 3155 3155 3155 3154 3155 3156 3155 3154 3153 3152 3152
3110 3113 3116 3119 3121 3123 3123 3124 3125 3126 3128 3130 3132 3134 3135 3140 3142 3145 3148 3150 3152 3154 3155 3156 3158 3159 3158 3158 3156 3156 3155 3154 3154 3154 3153 3153 3153 3152 3152 3154 3153 3151 3151 3150 3149
3103 3107 3112 3115 3117 3119 3120 3121 3122 3123 3125 3127 3129 3131 3132 3136 3139 3143 3145 3148 3150 3152 3154 3155 3156 3156 3156 3156 3155 3153 3153 3151 3151 3152 3152 3152 3150 3149 3152 3151 3152 3149 3149 3149 3149
3096 3101 3106 3110 3114 3115 3116 3118 3119 3121 3122 3124 3126 3128 3130 3133 3137 3140 3142 3146 3148 3149 3152 3153 3153 3154 3154 3154 3153 3152 3151 3152 3149 3150 3149 3150 3150 3148 3149 3149 3149 3147 3147 3147 3148
3090 3095 3100 3105 3109 3111 3112 3115 3116 3117 3120 3120 3122 3127 3128 3130 3133 3136 3140 3142 3145 3146 3150 3151 3151 3150 3151 3152 3150 3151 3150 3151 3149 3148 3147 3148 3147 3147 3144 3145 3147 3144 3145 3146 3146
3084 3089 3093 3099 3103 3106 3110 3113 3115 3116 3114 3117 3118 3121 3122 3126 3129 3132 3136 3139 3141 3143 3146 3148 3147 3147 3148 3150 3149 3147 3147 3148 3148 3146 3145 3145 3143 3144 3142 3141 3144 3143 3141 3143 3144
3077 3082 3087 3092 3097 3101 3104 3108 3109 3110 3111 3112 3114 3116 3118 3120 3124 3127 3132 3136 3137 3138 3144 3146 3142 3144 3146 3146 3146 3146 3145 3145 3147 3143 3143 3141 3139 3140 3138 3139 3140 3139 3136 3141 3142
3070 3075 3081 3086 3091 3096 3101 3104 3106 3107 3108 3107 3108 3111 3117 3118 3119 3123 3126 3131 3133 3136 3140 3140 3142 3142 3142 3142 3143 3142 3142 3143 3144 3141 3139 3138 3134 3133 3132 3133 3134 3137 3134 3137 3139
3063 3069 3075 3081 3087 3090 3095 3100 3103 3106 3107 3103 3103 3107 3108 3112 3114 3118 3121 3127 3130 3133 3138 3137 3138 3138 3138 3139 3140 3139 3139 3139 3140 3140 3138 3138 3134 3129 3129 3130 3131 3132 3132 3134 3136
3055 3062 3070 3077 3079 3085 3094 3096 3099 3105 3105 3098 3097 3101 3104 3108 3113 3115 3117 3123 3125 3128 3136 3135 3133 3135 3134 3136 3136 3136 3136 3136 3137 3137 3136 3134 3135 3126 3124 3126 3127 3127 3130 3130 3132
3049 3057 3063 3067 3075 3081 3088 3093 3099 3104 3097 3092 3093 3095 3099 3103 3110 3112 3116 3120 3124 3127 3129 3131 3130 3131 3132 3132 3133 3132 3134 3134 3134 3134 3134 3126 3129 3124 3120 3121 3123 3124 3127 3127 3130
3042 3050 3058 3065 3071 3077 3083 3089 3098 3095 3091 3089 3089 3090 3094 3098 3105 3107 3112 3115 3119 3123 3124 3126 3126 3126 3128 3129 3130 3131 3133 3132 3134 3133 3128 3122 3125 3119 3119 3118 3118 3120 3123 3124 3126
3036 3044 3052 3060 3066 3073 3080 3087 3089 3085 3087 3085 3087 3089 3091 3097 3100 3102 3108 3111 3115 3118 3122 3121 3122 3120 3121 3123 3127 3128 3130 3128 3129 3127 3123 3122 3119 3118 3117 3119 3118 3118 3121 3121 3123
3028 3037 3045 3051 3060 3067 3076 3079 3077 3081 3082 3085 3087 3088 3090 3094 3097 3100 3103 3105 3109 3113 3117 3117 3116 3116 3116 3118 3123 3124 3123 3126 3127 3123 3123 3118 3116 3116 3115 3116 3117 3118 3118 3117 3118
3019 3030 3039 3048 3056 3061 3068 3067 3072 3076 3080 3081 3083 3084 3084 3088 3093 3096 3098 3096 3102 3107 3111 3113 3113 3113 3113 3115 3117 3118 3120 3124 3124 3124 3122 3112 3111 3111 3113 3114 3116 3117 3116 3116 3116
3014 3023 3033 3041 3052 3055 3050 3059 3067 3072 3077 3078 3080 3081 3083 3084 3088 3092 3094 3095 3098 3101 3106 3109 3111 3111 3110 3110 3111 3115 3116 3118 3119 3119 3118 3117 3112 3110 3111 3112 3115 3116 3115 3114 3113
3007 3016 3024 3033 3043 3044 3047 3052 3064 3068 3073 3075 3077 3079 3081 3083 3086 3089 3090 3093 3094 3097 3100 3105 3106 3106 3107 3108 3110 3111 3113 3115 3116 3117 3116 3114 3112 3110 3110 3111 3112 3113 3112 3110 3110
2999 3010 3019 3026 3030 3034 3044 3051 3059 3065 3067 3072 3074 3077 3079 3081 3085 3087 3088 3090 3091 3092 3095 3100 3102 3104 3106 3109 3108 3105 3108 3110 3113 3115 3111 3113 3108 3108 3108 3108 3108 3107 3107 3107 3106
2993 3001 3011 3015 3025 3032 3039 3045 3053 3058 3063 3068 3070 3073 3076 3079 3081 3083 3085 3088 3088 3089 3093 3096 3098 3099 3102 3102 3101 3101 3103 3106 3110 3109 3105 3106 3104 3106 3106 3105 3102 3101 3099 3100 3099
2984 2993 2993 2998 3013 3025 3034 3041 3047 3051 3057 3062 3066 3070 3073 3076 3078 3081 3082 3084 3087 3089 3091 3094 3094 3096 3096 3098 3099 3100 3102 3103 3102 3102 3103 3101 3102 3101 3102 3100 3098 3098 3096 3093 3092
2977 2988 2995 3004 3014 3021 3027 3032 3040 3046 3051 3056 3062 3068 3071 3074 3077 3079 3080 3081 3085 3088 3089 3090 3091 3091 3092 3094 3095 3094 3095 3097 3097 3096 3095 3096 3095 3096 3096 3093 3093 3093 3091 3087 3084
2974 2985 2991 2998 3005 3012 3014 3027 3034 3042 3048 3053 3058 3063 3067 3072 3073 3076 3078 3080 3082 3084 3085 3087 3088 3090 3089 3091 3090 3086 3087 3088 3088 3090 3090 3090 3088 3090 3089 3086 3087 3088 3087 3084 3080